Location: Chochol
(49.7771°N, 14.9780°E)
Time: 00:52:26
(UTC+00:00)

STARLINK-1198 - Pass Details

Date: 09 April 2020
Orbit: 548 x 551 km, 53.0° (Epoch: 30 May)

Event Time Altitude Azimuth Distance (km) Brightness Sun altitude
Rises 18:26:09 0° 293° (WNW) 2,707 9.9 -7.2°
Reaches altitude 10° 18:28:24 10° 289° (WNW) 1,812 8.0 -7.5°
Maximum altitude 18:32:26 56° 211° (SSW) 651 4.0 -8.1°
Drops below altitude 10° 18:36:27 10° 133° (SE) 1,805 5.7 -8.7°
Enters shadow 18:36:27 10° 133° (SE) 1,806 5.7 -8.7°
